Вернуться в каталог

STARLINK-34647

АктивенСвязьVLEO
NORAD 64904·PAYLOAD·🇺🇸 United States

Запущен Jul 26, 2025 с Cape Canaveral Space Force Station

Loading…

Ближайшие Пролёты (ближайшие 24 часа)

TLE

СвежийSource: CelesTrak SupGP

Эпоха: Sep 15, 2026, 04:05 UTC

1 64904C 25157A   26258.17062500  .00033165  00000+0  98025-3 0  2589
2 64904  53.1574 182.4491 0001288  68.2441  87.3468 15.34361678    14

Отслеживайте STARLINK-34647 в реальном времени с AllMySat

Download on the App Store